Location: Newark
(51.3318°N, 0.0053°E)
Time: 07:21:54
(UTC+00:00)

CAS-6 - Pass Details

Date: 08 July 2022
Orbit: 613 x 634 km, 97.9° (Epoch: 17 August)

Event Time Altitude Azimuth Distance (km) Brightness Sun altitude
Exits shadow 22:12:17 17° 171° (S) 1,588 ? -12.2°
Maximum altitude 22:15:37 78° 256° (WSW) 642 ? -12.4°
Drops below altitude 10° 22:19:58 10° 343° (NNW) 1,995 ? -12.7°
Sets 22:22:09 0° 345° (NNW) 2,903 ? -12.9°
